Wind_Speed
17 17 16 15 16 16 17 17 17 16 14 13 12 11 9 8 7 7 6 6 5 4 3 4 6 7 8 8 8 9 9 8 9 9 8 8 7 8 8 7 7 7 6 7 7 6 6 6 6
17 16 16 15 17 17 18 19 18 17 15 14 13 12 10 9 8 8 7 6 4 3 4 4 6 7 7 8 8 9 9 9 9 9 8 8 8 8 8 7 6 6 6 6 6 6 6 6 5
17 16 16 17 17 18 19 19 19 17 16 15 14 13 11 9 8 8 8 7 5 4 4 5 6 7 6 6 7 9 9 9 9 9 8 8 8 8 8 7 7 6 6 6 5 5 5 5 5
16 17 17 18 18 18 18 18 19 18 17 16 15 14 12 10 9 8 8 7 6 5 5 6 6 7 7 6 7 8 9 10 10 9 8 8 8 8 8 7 7 6 6 6 6 5 4 4 4
15 16 18 19 19 18 18 19 19 19 19 18 16 15 13 12 10 9 8 7 6 4 4 6 7 7 7 7 7 8 8 10 10 9 9 9 8 8 7 6 6 5 6 5 5 5 5 4 3
16 16 18 19 20 20 19 20 20 20 19 18 16 15 14 13 11 10 8 7 6 5 4 6 7 8 7 8 8 8 9 9 10 10 9 9 8 7 7 6 6 5 5 5 5 5 4 4 3
16 17 18 19 20 20 20 20 19 19 18 17 16 16 15 14 12 11 10 8 7 6 5 7 8 8 7 8 8 8 9 9 10 9 9 8 8 7 7 6 6 5 5 5 5 4 4 4 3
14 15 17 18 18 19 19 19 19 18 17 17 17 17 16 14 13 12 11 10 8 7 6 7 8 7 6 7 8 9 9 9 9 9 9 9 8 7 7 6 6 6 6 5 5 5 5 5 5
12 14 15 16 17 18 18 19 18 17 17 17 17 17 16 15 14 12 12 11 10 9 8 8 7 6 6 7 8 9 9 9 9 9 9 8 8 8 7 6 6 6 5 6 5 5 4 6 6
11 12 13 14 16 17 17 18 17 17 17 17 16 16 16 15 14 14 13 12 11 9 8 7 7 6 6 7 7 8 9 9 9 9 8 8 7 8 7 7 6 6 5 5 5 5 4 5 5
9 10 10 12 13 15 16 17 16 17 17 17 16 16 16 15 14 14 13 12 12 10 9 8 7 6 7 7 7 7 8 8 8 8 7 7 7 7 7 8 7 7 6 5 5 5 4 3 4
6 8 9 10 11 13 14 15 16 16 16 16 16 17 16 15 14 13 13 12 12 11 9 7 7 7 8 7 7 7 8 8 8 7 7 7 7 8 7 8 7 7 7 6 6 5 4 4 4
4 5 6 8 9 10 12 13 14 14 14 14 15 16 16 15 14 13 12 12 12 11 10 8 7 7 7 6 6 8 7 7 8 7 6 6 8 7 7 7 7 6 6 7 7 5 4 4 4
2 2 4 5 6 7 9 11 11 12 12 13 14 15 15 14 14 13 11 11 11 9 8 7 7 6 6 6 6 7 7 6 7 7 6 7 7 7 7 7 7 7 6 6 6 5 4 4 4
3 1 1 2 3 5 7 9 9 10 10 11 12 13 14 13 13 12 11 10 9 9 7 6 6 6 6 5 6 6 6 5 6 6 6 6 6 6 6 7 7 7 6 6 6 5 5 4 5
5 4 2 1 1 2 4 6 6 8 9 9 11 12 13 14 13 11 10 10 9 8 7 6 5 4 4 5 5 5 4 4 4 5 6 6 6 6 7 6 6 7 7 7 6 6 6 6 6
7 6 5 3 2 1 2 3 4 6 8 8 9 10 11 12 12 11 10 9 9 7 6 5 5 4 3 3 4 4 3 3 3 4 5 5 6 6 6 6 7 6 7 7 7 7 8 8 8
9 8 7 6 5 4 4 3 3 4 5 6 7 8 9 10 10 10 9 9 8 7 6 5 3 3 2 1 2 2 2 3 4 4 4 5 5 6 7 8 8 7 7 8 8 8 8 9 9
13 12 10 9 9 8 7 6 4 4 5 5 5 7 7 8 8 8 8 8 7 7 5 4 2 1 1 1 1 1 1 2 3 3 4 5 6 7 7 8 9 9 9 8 9 9 9 10 10
15 14 12 12 12 11 10 9 7 6 6 6 6 6 6 6 6 7 7 7 6 6 5 4 3 2 1 2 1 1 2 3 3 3 4 6 7 7 8 8 8 9 9 9 9 10 10 10 10
17 16 15 14 14 14 13 11 10 8 8 8 8 8 7 6 5 6 6 7 6 6 5 4 3 2 2 3 3 2 3 3 4 5 5 6 7 8 8 8 9 9 9 9 10 11 11 10 11
17 17 17 16 16 16 16 15 12 11 11 10 10 9 9 8 7 6 7 7 7 5 4 4 3 2 3 3 3 3 4 5 5 5 5 7 8 8 8 9 9 10 10 10 11 11 10 10 11
18 18 18 17 17 17 17 17 14 14 13 12 12 11 11 10 8 8 8 8 8 5 4 4 4 3 3 3 4 4 5 5 6 6 6 7 9 9 9 10 10 10 11 11 12 12 11 10 11
18 19 19 20 19 19 18 19 16 15 15 14 14 13 12 11 10 10 9 9 9 7 6 5 4 4 4 4 4 5 5 6 7 8 8 9 9 10 11 11 12 12 12 12 13 13 12 12 12
19 19 20 21 21 21 19 20 18 17 16 15 14 14 13 12 11 10 11 9 9 9 7 6 6 6 6 6 6 7 7 7 8 9 10 11 11 12 12 13 13 13 12 13 14 14 14 14 14
20 20 21 22 22 21 21 20 18 17 16 14 14 14 13 12 11 12 11 10 10 10 9 8 9 9 9 9 9 9 10 10 10 10 11 11 12 13 13 14 14 14 14 14 14 15 15 15 15
20 21 21 23 23 23 22 19 18 17 16 15 15 14 13 12 13 13 13 13 13 13 12 10 11 11 11 11 11 11 11 11 11 12 13 13 14 14 15 16 16 16 16 16 16 16 16 17 18
21 21 21 22 23 22 22 19 17 16 16 16 16 14 14 13 13 14 14 14 14 14 14 12 13 12 12 12 13 13 13 13 13 14 14 14 14 15 15 16 18 18 18 19 19 19 20 20 20
22 22 23 23 23 23 22 19 17 17 16 16 15 13 13 14 13 15 15 15 15 15 16 16 15 14 14 14 15 15 15 15 15 16 16 16 17 17 18 18 19 19 19 20 20 21 21 21 22
23 23 24 24 24 23 22 19 17 18 17 17 15 14 14 13 14 16 17 16 16 17 17 18 17 16 16 17 17 17 18 18 18 19 19 20 20 20 21 21 21 21 21 21 21 22 22 23 24
Wind_Direction
75 73 73 73 71 69 68 67 64 61 60 59 60 57 57 61 62 56 49 53 57 70 97 125 146 148 150 153 152 154 157 159 161 157 157 153 151 153 153 153 156 155 152 146 145 146 145 141 143
76 74 73 74 71 68 65 64 63 61 59 57 57 58 57 56 55 52 47 49 51 68 108 123 139 146 151 155 157 158 157 161 163 160 158 158 157 156 163 162 160 156 157 152 151 149 148 148 149
80 75 72 73 70 67 65 62 61 59 59 58 56 56 54 52 52 50 48 52 56 81 116 128 136 142 144 151 158 163 159 162 165 164 162 164 162 158 159 165 167 165 164 159 160 155 154 153 157
79 74 70 69 68 66 64 62 60 57 57 56 54 52 49 50 51 48 49 51 62 84 113 128 134 137 137 144 154 160 162 164 167 164 161 162 162 160 160 168 168 170 171 165 163 162 165 162 165
80 74 70 69 66 64 62 61 60 57 54 52 51 51 49 49 51 48 50 55 67 83 113 135 138 140 140 144 152 155 159 163 166 165 164 161 161 163 169 169 166 168 170 169 169 170 172 169 171
82 75 70 67 65 63 62 61 58 57 54 51 50 50 51 49 48 48 52 61 76 91 117 135 144 142 139 147 153 155 159 161 164 162 162 164 163 162 167 164 166 167 171 178 179 176 176 179 189
82 74 67 65 63 61 59 59 58 55 53 51 51 51 51 48 47 49 50 62 77 85 110 134 141 144 144 150 152 150 150 152 157 160 164 163 162 160 158 162 165 165 173 173 177 188 190 196 201
78 71 64 62 60 57 55 56 59 56 54 51 50 49 48 46 46 46 47 60 73 79 99 128 138 143 146 147 151 150 152 154 159 162 165 165 166 163 161 160 168 174 176 179 190 194 192 200 205
80 71 64 60 57 54 54 55 59 57 53 52 50 46 43 43 43 44 47 58 70 84 98 113 125 138 137 140 147 151 151 155 161 166 168 170 171 167 164 167 177 184 182 186 194 196 200 197 199
84 73 66 63 55 52 53 55 57 57 53 49 46 42 39 40 41 42 47 56 65 81 90 102 109 114 128 134 144 152 157 158 162 168 171 174 177 173 174 178 182 190 192 199 200 194 190 189 188
86 74 72 64 56 52 53 54 53 54 51 47 43 41 40 41 42 43 49 57 64 72 78 88 96 99 115 124 137 148 156 158 161 166 173 180 182 179 184 187 189 195 196 199 201 193 188 190 200
87 80 78 69 60 55 51 53 53 53 49 46 43 41 40 42 44 45 50 56 59 65 72 82 89 96 110 122 132 138 146 152 159 166 176 185 183 182 188 193 193 197 199 200 195 193 198 199 210
92 76 69 66 65 60 51 48 48 49 45 43 42 39 39 43 43 45 48 51 55 61 69 77 82 95 106 115 127 132 140 150 157 163 172 180 182 186 191 191 196 195 198 198 195 195 203 209 220
112 89 74 63 54 58 52 49 46 42 41 42 39 38 39 38 36 42 47 49 52 57 64 71 78 86 100 111 120 129 138 149 160 162 168 176 183 188 190 194 192 194 197 208 212 213 216 226 228
201 190 120 74 60 51 45 48 44 41 40 40 38 36 36 34 34 39 43 47 49 52 61 69 71 78 93 104 117 125 132 142 156 164 173 178 181 187 190 192 198 203 206 213 216 216 218 227 225
224 232 223 180 81 40 33 37 37 40 35 32 34 32 31 30 33 38 38 41 43 47 60 64 63 59 79 99 112 124 130 139 153 175 185 190 193 196 197 203 208 212 216 218 220 219 222 227 226
233 236 235 239 271 278 334 6 23 31 29 22 25 26 26 28 30 32 32 34 34 36 47 52 54 50 72 96 113 122 132 147 166 176 188 199 203 206 208 210 215 218 222 221 225 230 232 235 233
238 240 247 254 259 266 283 310 335 3 14 5 8 14 20 24 25 25 24 27 25 25 26 23 35 45 50 94 134 130 150 158 173 191 202 209 213 221 225 220 219 223 225 227 231 234 238 240 241
240 243 248 253 256 263 273 286 302 324 332 332 346 358 9 15 15 14 11 11 13 10 9 7 15 10 359 173 167 182 191 188 199 213 220 226 226 226 231 230 228 229 230 233 233 234 238 240 241
240 244 247 252 256 262 269 275 287 307 307 306 317 327 343 353 359 355 357 358 357 352 356 360 354 328 298 244 230 214 217 222 231 228 228 230 229 233 235 240 237 235 236 240 240 239 241 242 243
245 247 247 250 254 260 267 270 276 283 289 291 302 307 316 326 338 340 337 340 339 338 340 345 335 308 264 241 236 240 228 231 239 240 238 237 236 240 236 238 235 234 239 242 244 246 247 249 248
246 250 251 251 252 256 264 268 269 273 282 284 288 296 303 305 318 323 323 321 323 318 316 323 315 291 266 244 238 250 250 248 251 252 251 247 243 240 239 241 239 240 242 243 245 247 248 250 250
245 249 252 254 257 259 263 269 270 270 276 277 280 283 289 286 294 302 305 308 317 315 295 293 299 287 269 257 253 259 260 257 255 256 255 250 243 242 244 243 243 245 245 245 247 249 250 253 255
249 249 252 254 257 260 265 268 270 271 276 274 275 277 281 278 281 285 287 296 303 303 290 278 284 281 269 264 264 265 264 261 259 258 255 254 250 247 247 247 251 252 251 250 250 253 255 257 257
254 253 253 256 257 261 265 266 269 272 275 273 272 277 274 270 272 275 279 287 295 294 293 288 281 279 270 267 267 268 268 269 265 259 259 258 255 252 252 254 255 255 255 254 252 253 255 257 258
255 255 255 258 260 261 262 265 268 271 272 269 273 276 272 271 267 267 273 278 282 283 281 278 275 275 272 268 271 274 275 273 271 267 264 259 256 256 254 256 256 257 259 258 257 258 257 257 259
254 255 257 260 262 262 262 266 264 267 270 272 275 274 271 271 269 267 269 271 274 273 273 278 278 276 278 273 272 275 277 277 277 275 272 267 261 260 261 258 258 258 260 262 260 261 261 260 260
254 257 258 261 265 264 263 266 267 265 271 274 276 274 271 267 264 266 268 269 270 271 272 273 276 277 279 277 277 273 272 275 276 277 276 272 267 265 267 264 260 262 263 265 265 264 263 263 262
254 255 259 263 266 267 268 269 268 269 271 273 274 271 268 265 262 264 268 269 273 274 274 273 278 276 278 275 276 278 275 275 275 273 272 270 268 267 267 266 267 265 263 265 265 264 263 262 263
251 253 258 262 265 269 271 271 269 270 273 273 273 273 273 269 265 266 269 272 274 275 276 277 277 276 277 276 278 278 280 280 279 277 274 270 268 269 269 268 268 268 267 267 268 268 265 266 265
Height
5880 5879 5879 5879 5879 5877 5875 5875 5874 5873 5873 5873 5872 5872 5872 5872 5873 5874 5872 5870 5869 5869 5869 5869 5870 5871 5872 5873 5874 5876 5878 5879 5881 5882 5884 5885 5887 5888 5889 5890 5892 5893 5894 5896 5897 5898 5899 5899 5900
5883 5882 5882 5881 5880 5878 5878 5876 5875 5875 5875 5874 5873 5873 5873 5873 5873 5872 5871 5870 5870 5869 5869 5869 5870 5872 5873 5874 5875 5876 5878 5880 5881 5883 5884 5886 5887 5889 5890 5891 5893 5894 5895 5896 5897 5898 5899 5900 5901
5885 5885 5885 5883 5881 5880 5879 5878 5877 5877 5876 5875 5875 5874 5874 5874 5873 5872 5871 5870 5869 5869 5869 5870 5871 5872 5873 5874 5875 5876 5878 5880 5881 5883 5885 5886 5888 5889 5891 5892 5894 5895 5896 5897 5898 5899 5900 5901 5902
5888 5888 5887 5886 5883 5882 5881 5880 5879 5878 5878 5877 5876 5876 5875 5875 5874 5873 5872 5871 5870 5869 5870 5870 5872 5873 5873 5874 5875 5877 5878 5880 5882 5884 5885 5887 5888 5890 5891 5893 5894 5896 5897 5898 5899 5900 5901 5902 5902
5890 5890 5889 5887 5886 5884 5883 5882 5881 5880 5879 5879 5878 5877 5877 5876 5875 5874 5873 5872 5871 5870 5870 5871 5872 5873 5874 5875 5876 5877 5879 5881 5882 5884 5886 5887 5889 5891 5892 5893 5895 5896 5897 5898 5899 5900 5901 5902 5903
5892 5891 5890 5889 5888 5887 5885 5884 5883 5882 5881 5881 5880 5879 5879 5878 5876 5875 5874 5873 5872 5871 5871 5871 5872 5873 5874 5875 5877 5878 5879 5881 5883 5885 5887 5888 5890 5891 5893 5894 5895 5896 5898 5899 5900 5901 5902 5903 5903
5894 5893 5891 5891 5890 5889 5888 5886 5885 5884 5884 5883 5882 5881 5880 5879 5878 5877 5875 5873 5872 5871 5871 5871 5872 5873 5875 5876 5877 5879 5880 5882 5884 5886 5887 5889 5890 5892 5893 5894 5896 5897 5898 5899 5900 5901 5902 5903 5903
5895 5895 5893 5893 5892 5891 5890 5888 5887 5887 5886 5885 5884 5883 5882 5881 5880 5878 5877 5875 5874 5873 5872 5872 5873 5874 5875 5876 5877 5879 5881 5882 5884 5886 5888 5889 5891 5892 5893 5895 5896 5897 5898 5899 5900 5901 5901 5902 5903
5897 5898 5895 5895 5894 5893 5892 5890 5889 5889 5888 5887 5886 5885 5884 5883 5881 5880 5878 5877 5876 5875 5873 5874 5874 5875 5876 5877 5878 5880 5881 5883 5885 5886 5887 5889 5891 5892 5893 5895 5896 5897 5898 5900 5900 5901 5901 5902 5903
5899 5899 5898 5897 5896 5896 5894 5893 5892 5891 5890 5889 5889 5888 5886 5885 5883 5881 5880 5879 5878 5877 5876 5876 5876 5877 5877 5878 5879 5881 5882 5884 5885 5886 5888 5889 5891 5892 5894 5895 5896 5898 5899 5900 5900 5900 5901 5902 5902
5900 5900 5900 5899 5898 5897 5896 5895 5895 5894 5893 5892 5891 5890 5888 5887 5885 5884 5882 5881 5880 5879 5878 5878 5878 5878 5879 5879 5880 5881 5882 5884 5885 5887 5888 5890 5891 5893 5894 5895 5896 5898 5899 5899 5900 5900 5901 5902 5902
5901 5901 5901 5900 5899 5899 5898 5897 5896 5896 5896 5895 5893 5892 5890 5889 5887 5885 5884 5883 5881 5881 5880 5880 5880 5880 5880 5881 5881 5882 5883 5884 5886 5887 5888 5890 5891 5892 5894 5895 5896 5897 5898 5899 5900 5901 5902 5902 5902
5902 5902 5902 5901 5900 5900 5900 5899 5899 5898 5898 5896 5895 5894 5893 5891 5889 5887 5886 5884 5883 5882 5882 5882 5881 5881 5882 5882 5882 5883 5884 5885 5886 5887 5888 5890 5891 5892 5893 5895 5896 5897 5898 5899 5900 5901 5902 5902 5902
5902 5902 5902 5902 5901 5901 5901 5901 5901 5900 5899 5898 5897 5896 5895 5893 5891 5889 5888 5886 5885 5884 5884 5883 5883 5883 5883 5883 5883 5884 5885 5886 5886 5887 5889 5890 5891 5892 5893 5894 5896 5897 5898 5899 5900 5901 5902 5902 5902
5902 5903 5903 5902 5902 5902 5902 5902 5902 5902 5901 5900 5899 5898 5896 5894 5893 5891 5889 5888 5887 5886 5885 5885 5884 5884 5884 5884 5884 5885 5885 5886 5887 5888 5889 5890 5891 5892 5893 5894 5896 5897 5898 5899 5900 5901 5901 5902 5902
5902 5903 5903 5903 5902 5902 5904 5903 5903 5902 5902 5901 5900 5899 5898 5896 5894 5892 5891 5890 5888 5888 5887 5886 5886 5885 5885 5885 5885 5885 5886 5886 5887 5888 5888 5890 5891 5892 5893 5894 5896 5897 5898 5898 5899 5900 5901 5901 5902
5901 5902 5902 5902 5902 5901 5902 5903 5903 5903 5902 5902 5901 5900 5898 5897 5896 5894 5893 5891 5890 5889 5888 5887 5886 5886 5886 5886 5886 5886 5886 5887 5887 5887 5888 5890 5890 5892 5893 5894 5895 5896 5897 5898 5899 5900 5900 5901 5901
5900 5900 5901 5901 5901 5901 5901 5902 5903 5902 5902 5902 5901 5900 5899 5898 5896 5895 5893 5892 5890 5889 5888 5887 5887 5887 5886 5886 5886 5886 5887 5887 5887 5888 5888 5889 5890 5891 5892 5893 5894 5895 5896 5897 5897 5898 5899 5899 5900
5898 5899 5900 5900 5900 5900 5900 5901 5901 5901 5902 5901 5901 5900 5899 5897 5896 5895 5894 5892 5891 5890 5889 5888 5887 5887 5887 5887 5886 5886 5887 5887 5887 5887 5888 5888 5889 5890 5891 5892 5893 5894 5895 5895 5896 5897 5897 5898 5898
5896 5897 5898 5899 5898 5898 5899 5899 5900 5900 5901 5901 5900 5899 5898 5897 5896 5895 5894 5892 5891 5890 5889 5888 5887 5887 5886 5886 5886 5886 5887 5887 5887 5887 5887 5887 5888 5889 5890 5891 5892 5893 5893 5894 5894 5895 5895 5896 5896
5893 5895 5896 5896 5896 5896 5897 5898 5899 5899 5899 5899 5899 5898 5897 5896 5895 5894 5893 5891 5890 5889 5888 5887 5886 5886 5886 5886 5886 5886 5886 5886 5886 5886 5886 5887 5888 5888 5889 5890 5890 5891 5892 5892 5893 5893 5893 5893 5894
5891 5892 5893 5893 5893 5893 5895 5895 5897 5897 5897 5897 5897 5896 5895 5895 5894 5892 5891 5890 5888 5887 5886 5886 5885 5885 5885 5885 5885 5885 5885 5885 5885 5885 5885 5886 5886 5887 5887 5888 5889 5889 5890 5890 5891 5891 5891 5891 5892
5888 5888 5889 5889 5890 5891 5891 5892 5894 5894 5894 5895 5894 5894 5893 5893 5892 5891 5889 5888 5886 5885 5884 5884 5884 5885 5885 5885 5884 5884 5884 5884 5884 5884 5884 5885 5885 5885 5886 5886 5887 5887 5888 5888 5888 5889 5889 5889 5889
5884 5885 5885 5885 5886 5887 5889 5889 5890 5891 5891 5891 5891 5890 5890 5890 5890 5889 5888 5886 5885 5884 5883 5882 5883 5884 5884 5884 5883 5883 5883 5882 5882 5882 5883 5883 5883 5883 5884 5884 5884 5885 5885 5885 5886 5886 5887 5887 5887
5880 5881 5881 5881 5882 5884 5885 5885 5887 5887 5887 5887 5887 5887 5886 5886 5887 5887 5886 5885 5884 5884 5883 5882 5883 5882 5882 5882 5882 5882 5881 5881 5880 5880 5880 5880 5881 5881 5881 5881 5882 5882 5882 5883 5883 5883 5883 5884 5884
5876 5877 5878 5878 5878 5880 5881 5881 5883 5883 5883 5883 5884 5883 5883 5883 5883 5883 5883 5883 5883 5882 5881 5881 5881 5880 5880 5880 5880 5880 5879 5879 5878 5878 5878 5877 5878 5878 5878 5878 5878 5879 5879 5879 5879 5880 5880 5880 5880
5872 5872 5874 5874 5874 5875 5876 5877 5878 5879 5879 5880 5880 5880 5880 5880 5880 5880 5880 5880 5880 5879 5879 5878 5879 5878 5878 5878 5878 5877 5877 5876 5876 5875 5875 5874 5874 5875 5874 5874 5875 5875 5875 5875 5876 5876 5876 5876 5876
5867 5868 5869 5869 5869 5870 5872 5872 5874 5875 5875 5876 5876 5876 5876 5876 5876 5877 5877 5877 5877 5876 5876 5876 5876 5875 5875 5875 5875 5874 5874 5873 5873 5872 5872 5871 5871 5871 5871 5871 5871 5871 5871 5871 5871 5871 5871 5871 5871
5863 5864 5864 5865 5865 5866 5866 5870 5870 5870 5871 5872 5872 5872 5873 5873 5873 5873 5873 5873 5873 5873 5873 5872 5872 5872 5872 5871 5871 5871 5870 5869 5869 5869 5868 5867 5867 5867 5866 5866 5866 5866 5865 5865 5865 5865 5865 5865 5865
5857 5858 5859 5860 5861 5861 5862 5867 5865 5866 5867 5867 5868 5868 5868 5868 5869 5869 5869 5869 5869 5869 5868 5868 5868 5868 5868 5867 5867 5866 5866 5865 5864 5864 5863 5862 5862 5861 5861 5861 5861 5861 5860 5859 5859 5859 5859 5859 5859